Find Starlink 31637

NORAD ID: 59258 Int'l Des: 2024-050 Owner: SPXS Country: US Constellation: starlink operational
LEOCIRCULAR

实时位置

正在加载3D地球...

关于 Starlink 31637

正在加载描述...

即将过境

Passes for default location (London). Set your location on the main map for personalized predictions.

高度历史

Loading altitude history...

两行轨道根数

1 59258U 24050E 26132.58523315 -.00000253 00000-0 35793-5 0 9999
2 59258 53.1605 244.0376 0001160 86.4427 273.6707 15.30190117120335
Epoch: May 12, 2026 • Age: 20 hours

当前状态

高度 476.3 km
速度 7.63 km/s
星下点 -0.65°S, 44.93°E
发射日期 Mar 19, 2024
运行时间 2.1 years
类型 internet

技术详情

分类 Payload
质量 730.00 kg
干质量 700.00 kg
总质量 730.00 kg
长度 0.30 m
直径 4.10 m
跨度 29.00 m
形状 Box + pan
制造商 SPXS
平台类型 Starlink V2M
阶段状态 In Orbit
所有者/国家 SPXS/US

Most Searched